Date,TemperatureHighF,TemperatureAvgF,TemperatureLowF,DewpointHighF,DewpointAvgF,DewpointLowF,HumidityHigh,HumidityAvg,HumidityLow,PressureMaxIn,PressureMinIn,WindSpeedMaxMPH,WindSpeedAvgMPH,GustSpeedMaxMPH,PrecipitationSumIn
2013-11-1,52.0,47.2,43.7,45.1,42.8,40.4,93,85,69,29.88,29.60,8,2,14,0.00
2013-11-2,49.3,42.8,35.8,40.7,36.7,31.1,92,79,61,30.26,29.87,7,2,11,0.00
2013-11-3,56.7,42.8,29.7,40.6,34.1,27.3,93,73,48,30.41,30.25,2,0,6,0.00
2013-11-4,58.8,50.3,42.6,43.8,39.9,34.4,77,68,53,30.32,30.18,6,2,14,0.00
2013-11-5,56.1,52.9,50.9,52.3,48.2,43.8,94,84,74,30.35,30.04,4,1,10,0.08
2013-11-6,57.4,47.1,35.1,54.8,44.0,28.3,96,89,76,30.32,29.92,8,3,15,0.69
2013-11-7,50.5,37.1,29.1,36.3,29.9,25.1,86,76,52,30.42,30.27,6,2,15,0.00
2013-11-8,52.0,41.3,29.8,34.1,30.8,26.7,90,68,44,30.46,30.10,4,1,14,0.00
2013-11-9,64.0,51.3,43.5,42.1,36.6,33.3,75,58,35,30.28,30.03,8,3,18,0.00
2013-11-10,51.8,41.0,33.1,34.9,30.4,27.0,79,67,45,30.50,30.27,4,1,8,0.00
2013-11-11,52.7,40.3,24.4,39.3,32.3,20.5,95,75,58,30.64,30.20,8,2,15,5.10
2013-11-12,32.5,24.2,17.6,22.5,17.8,13.6,85,77,62,30.86,30.63,4,0,11,0.01
2013-11-13,41.4,29.5,18.0,21.9,18.4,13.7,84,64,42,30.78,30.33,7,3,16,0.02
2013-11-14,52.7,40.1,29.3,28.1,23.2,19.5,67,52,31,30.34,30.07,10,4,17,0.00
2013-11-15,49.8,43.2,39.0,38.8,32.5,26.5,85,66,57,30.12,30.02,6,2,12,0.00
2013-11-16,60.6,54.0,41.9,57.7,50.5,37.7,94,88,76,30.02,29.67,9,2,25,0.16
2013-11-17,70.5,58.3,44.1,63.9,52.2,36.7,93,80,62,29.95,29.29,13,4,24,0.70
2013-11-18,49.6,41.2,32.9,38.0,31.2,25.7,84,68,45,30.39,29.95,10,2,17,0.00
2013-11-19,46.6,34.4,25.2,30.6,26.6,21.7,88,74,50,30.48,30.35,3,0,5,0.00
2013-11-20,43.2,37.2,30.6,38.6,31.5,26.0,90,80,65,30.37,30.13,3,0,10,0.19
2013-11-21,49.8,46.4,42.8,45.9,43.0,38.3,96,88,80,30.30,30.18,4,0,8,0.29
2013-11-22,44.6,36.4,27.7,43.5,33.4,24.6,96,89,79,30.63,30.28,10,3,14,0.01
2013-11-23,27.7,21.6,13.3,24.6,14.1,6.7,90,73,58,30.86,30.60,10,3,17,0.00
2013-11-24,29.3,17.8,8.8,11.1,7.2,3.6,81,64,38,30.90,30.54,4,1,8,0.00
2013-11-25,31.6,28.0,20.5,23.5,18.2,10.4,77,66,57,30.54,30.24,8,3,16,0.00
2013-11-26,35.2,27.6,16.3,27.3,19.1,7.3,79,70,60,30.32,30.14,8,3,16,0.00
2013-11-27,27.7,18.5,11.7,10.4,7.7,4.3,72,63,45,30.42,30.31,6,2,14,0.00
2013-11-28,39.2,26.4,18.0,19.7,15.0,10.1,78,62,45,30.63,30.30,6,1,16,0.00
2013-11-29,40.6,27.3,14.4,23.3,18.1,10.9,88,69,47,30.76,30.50,2,0,6,0.00
2013-11-30,53.4,39.3,29.1,33.4,28.3,21.6,80,65,45,30.50,30.16,5,2,12,0.00